FW5255 Weather Reports


Display with metric or nautical units.
time (UTC)temp
F
wind
direction
speed
MPH
gust
MPH
rain 1hr
in
rain 24hr
in
rain mn
in
humidity
%
barometer
mb
20260505052325 60 144 0.0 0.0 0.00 0.00 0.00 74 1011.1
20260505051823 60 144 0.0 0.0 0.00 0.00 0.00 74 1011.1
20260505051320 60 144 0.0 0.0 0.00 0.00 0.00 75 1011.1
20260505050818 60 144 0.0 0.0 0.00 0.00 0.00 75 1010.9
20260505050317 60 144 0.0 0.0 0.00 0.00 0.00 74 1010.9
20260505041746 60 144 0.0 0.0 0.00 0.00 0.00 73 1011.2
20260505041243 61 144 0.0 0.0 0.00 0.00 0.00 73 1011.1
20260505040741 61 144 0.0 0.0 0.00 0.00 0.00 73 1011.3
20260505040238 61 145 0.0 0.0 0.00 0.00 0.00 73 1011.1
20260505035735 61 145 0.0 0.0 0.00 0.00 0.00 73 1011.2
20260505035230 61 145 0.0 0.0 0.00 0.00 0.00 73 1011.4
20260505034728 61 145 0.0 0.0 0.00 0.00 0.00 72 1011.3
20260505034224 61 145 0.0 0.0 0.00 0.00 0.00 72 1011.3
20260505033721 61 146 0.0 0.0 0.00 0.00 0.00 72 1011.2
20260505033219 61 146 0.0 0.0 0.00 0.00 0.00 72 1010.9
20260505032716 61 146 0.0 0.0 0.00 0.00 0.00 71 1011.1
20260505032207 61 146 0.0 0.0 0.00 0.00 0.00 71 1011.0
20260505031704 61 146 0.0 0.0 0.00 0.00 0.00 71 1011.0
20260505031200 61 146 0.0 0.0 0.00 0.00 0.00 71 1011.1
20260505030657 61 146 0.0 0.0 0.00 0.00 0.00 71 1011.1
20260505030152 61 146 0.0 0.0 0.00 0.00 0.00 70 1011.2
20260505025649 62 146 0.0 0.0 0.00 0.00 0.00 69 1011.2
20260505025148 62 148 0.0 0.0 0.00 0.00 0.00 68 1011.1
20260505024645 61 148 0.0 0.0 0.00 0.00 0.00 68 1011.3
20260505024142 62 143 0.0 0.0 0.00 0.00 0.00 67 1011.4
20260505023639 62 143 0.0 0.0 0.00 0.00 0.00 67 1011.4
20260505023137 62 143 0.0 0.0 0.00 0.00 0.00 66 1011.4
20260505022634 62 143 0.0 0.0 0.00 0.00 0.00 64 1011.2
20260505022131 62 146 0.0 0.0 0.00 0.00 0.00 63 1011.3
20260505021627 62 148 0.0 0.0 0.00 0.00 0.00 63 1011.5
20260505021124 62 148 0.0 0.0 0.00 0.00 0.00 62 1011.3
20260505020614 62 97 0.0 0.0 0.00 0.00 0.00 61 1011.3
20260505020111 62 143 0.0 0.0 0.00 0.00 0.00 60 1011.3
20260505015608 62 142 0.0 0.0 0.00 0.00 0.00 59 1011.3
20260505015104 63 153 0.0 0.0 0.00 0.00 0.00 58 1011.3
20260505014601 63 153 0.0 0.0 0.00 0.00 0.00 58 1011.2
20260505014058 63 153 0.0 0.0 0.00 0.00 0.00 57 1011.3
20260505013555 63 154 0.0 0.0 0.00 0.00 0.00 59 1011.5
20260505013053 63 155 0.0 0.0 0.00 0.00 0.00 57 1011.2
20260505012550 63 156 0.0 0.0 0.00 0.00 0.00 56 1011.3
20260505012047 63 170 0.0 0.0 0.00 0.00 0.00 56 1011.3
20260505011543 64 174 0.0 0.0 0.00 0.00 0.00 55 1011.4
20260505011040 64 174 0.0 0.0 0.00 0.00 0.00 56 1011.1
20260505010535 64 180 0.0 0.0 0.00 0.00 0.00 54 1010.9
20260505010032 64 181 0.0 0.0 0.00 0.00 0.00 53 1010.8
20260505005528 64 182 0.0 0.0 0.00 0.00 0.00 53 1010.9
20260505005027 65 182 0.0 0.0 0.00 0.00 0.00 53 1010.7
20260505004523 64 185 0.0 0.0 0.00 0.00 0.00 53 1010.9
20260505004019 64 186 0.0 0.0 0.00 0.00 0.00 53 1010.7
20260505003517 65 186 0.0 0.0 0.00 0.00 0.00 53 1010.7
20260505003014 65 190 0.0 0.0 0.00 0.00 0.00 53 1010.8
20260505002509 65 205 0.0 0.0 0.00 0.00 0.00 53 1010.7
20260505002009 65 260 0.0 0.0 0.00 0.00 0.00 52 1010.5
20260505001506 66 283 0.0 0.0 0.00 0.00 0.00 52 1010.7
20260505001003 66 283 0.0 0.0 0.00 0.00 0.00 50 1010.6
20260505000500 66 283 0.0 0.0 0.00 0.00 0.00 49 1010.6
20260504235956 67 283 0.0 0.0 0.00 0.00 0.00 48 1010.3
20260504235454 67 283 0.0 0.0 0.00 0.00 0.00 48 1010.6
20260504234950 68 283 0.0 0.0 0.00 0.00 0.00 48 1010.4
20260504234448 68 283 0.0 0.0 0.00 0.00 0.00 48 1010.4
20260504233944 68 283 0.0 0.0 0.00 0.00 0.00 46 1010.4
20260504233439 69 283 0.0 0.0 0.00 0.00 0.00 45 1010.3
20260504232937 69 311 0.0 0.0 0.00 0.00 0.00 45 1010.5
20260504232434 69 299 0.0 0.0 0.00 0.00 0.00 44 1010.3
20260504231932 69 251 0.0 0.0 0.00 0.00 0.00 44 1010.1
20260504231427 70 250 0.0 0.0 0.00 0.00 0.00 43 1010.3
20260504230924 70 277 0.0 0.0 0.00 0.00 0.00 43 1010.1
20260504230420 70 290 0.0 0.0 0.00 0.00 0.00 44 1010.2
20260504225920 71 235 0.0 0.0 0.00 0.00 0.00 40 1010.4
20260504225416 71 265 0.0 0.0 0.00 0.00 0.00 40 1010.3
20260504224914 71 268 0.0 0.0 0.00 0.00 0.00 41 1010.2
20260504224410 71 275 0.0 0.0 0.00 0.00 0.00 39 1010.2
20260504223907 71 278 0.0 0.0 0.00 0.00 0.00 40 1010.0
20260504223402 71 276 0.0 0.0 0.00 0.00 0.00 39 1010.2
20260504222859 71 328 0.0 0.0 0.00 0.00 0.00 38 1010.0
20260504222356 71 281 0.0 0.0 0.00 0.00 0.00 41 1010.3
20260504221854 71 277 0.0 0.0 0.00 0.00 0.00 39 1010.2
20260504221350 71 274 0.0 0.0 0.00 0.00 0.00 40 1010.1
20260504220848 72 197 0.0 0.0 0.00 0.00 0.00 40 1010.3
20260504220344 72 237 0.0 0.0 0.00 0.00 0.00 38 1010.6
20260504215842 72 269 0.0 0.0 0.00 0.00 0.00 39 1010.4
20260504215338 72 191 0.0 0.0 0.00 0.00 0.00 38 1010.3
20260504214834 72 279 0.0 0.0 0.00 0.00 0.00 39 1010.3
20260504214331 72 239 0.0 0.0 0.00 0.00 0.00 36 1010.4
20260504213828 73 290 0.0 0.0 0.00 0.00 0.00 37 1010.3
20260504213324 72 285 0.0 0.0 0.00 0.00 0.00 39 1010.3
20260504212821 73 269 0.0 0.0 0.00 0.00 0.00 37 1010.3
20260504212317 72 283 0.0 0.0 0.00 0.00 0.00 39 1010.6
20260504211815 73 56 0.0 1.0 0.00 0.00 0.00 36 1010.1
20260504211311 73 278 0.0 0.0 0.00 0.00 0.00 38 1010.5
20260504210809 73 248 0.0 0.0 0.00 0.00 0.00 37 1010.4
20260504210305 73 188 0.0 1.0 0.00 0.00 0.00 37 1010.3
20260504205803 73 287 0.0 0.0 0.00 0.00 0.00 36 1010.4
20260504205300 73 315 0.0 0.0 0.00 0.00 0.00 36 1010.5
20260504204758 74 267 0.0 0.0 0.00 0.00 0.00 35 1010.1
20260504204256 73 47 0.0 0.0 0.00 0.00 0.00 36 1010.6
20260504203755 73 316 0.0 0.0 0.00 0.00 0.00 37 1010.4
20260504203252 73 301 0.0 0.0 0.00 0.00 0.00 35 1010.3
20260504202747 73 274 0.0 0.0 0.00 0.00 0.00 36 1010.2
20260504202245 73 328 0.0 0.0 0.00 0.00 0.00 36 1010.4
20260504201741 73 177 0.0 0.0 0.00 0.00 0.00 36 1010.6
20260504201238 73 190 0.0 0.0 0.00 0.00 0.00 36 1010.3
20260504200736 73 320 0.0 0.0 0.00 0.00 0.00 35 1010.4
20260504200232 73 285 0.0 0.0 0.00 0.00 0.00 37 1010.5
20260504195729 74 257 0.0 0.0 0.00 0.00 0.00 37 1010.5
20260504195225 74 283 0.0 0.0 0.00 0.00 0.00 37 1010.6
20260504194722 74 221 0.0 0.0 0.00 0.00 0.00 35 1011.0
20260504194218 73 270 0.0 0.0 0.00 0.00 0.00 36 1010.7
20260504193714 74 287 0.0 0.0 0.00 0.00 0.00 36 1010.7
20260504193212 75 275 0.0 0.0 0.00 0.00 0.00 37 1010.9
20260504192710 75 269 0.0 0.0 0.00 0.00 0.00 33 1010.9
20260504192208 75 281 0.0 0.0 0.00 0.00 0.00 34 1010.9
20260504191706 75 296 0.0 0.0 0.00 0.00 0.00 37 1011.1
20260504191203 75 280 0.0 0.0 0.00 0.00 0.00 33 1011.0
20260504190658 75 265 0.0 0.0 0.00 0.00 0.00 34 1011.2
20260504190155 75 277 0.0 0.0 0.00 0.00 0.00 34 1011.5
20260504185651 75 269 0.0 0.0 0.00 0.00 0.00 33 1011.3
20260504185147 74 303 0.0 0.0 0.00 0.00 0.00 35 1011.3
20260504184643 74 280 0.0 0.0 0.00 0.00 0.00 36 1011.3
20260504184133 73 302 0.0 0.0 0.00 0.00 0.00 35 1011.6
20260504183630 73 298 0.0 0.0 0.00 0.00 0.00 35 1011.6
20260504183128 73 282 0.0 0.0 0.00 0.00 0.00 34 1011.9
20260504182625 73 332 0.0 0.0 0.00 0.00 0.00 34 1011.9
20260504182123 75 331 0.0 0.0 0.00 0.00 0.00 34 1011.9
20260504181620 75 262 0.0 0.0 0.00 0.00 0.00 37 1011.9
20260504181117 74 239 0.0 0.0 0.00 0.00 0.00 39 1012.2
20260504180617 74 87 0.0 0.0 0.00 0.00 0.00 34 1012.0
20260504180115 74 267 0.0 0.0 0.00 0.00 0.00 37 1012.2
20260504175612 73 303 0.0 0.0 0.00 0.00 0.00 40 1012.3
20260504175108 73 287 0.0 0.0 0.00 0.00 0.00 40 1012.4
20260504174607 72 274 0.0 0.0 0.00 0.00 0.00 36 1012.5
20260504174103 72 320 0.0 0.0 0.00 0.00 0.00 37 1012.5
20260504173600 72 39 0.0 0.0 0.00 0.00 0.00 36 1012.7
20260504173058 72 283 0.0 0.0 0.00 0.00 0.00 37 1012.8
20260504172553 72 167 0.0 0.0 0.00 0.00 0.00 38 1012.6
20260504172050 72 291 0.0 0.0 0.00 0.00 0.00 38 1012.9
20260504171547 71 271 0.0 0.0 0.00 0.00 0.00 37 1012.7
20260504171044 71 260 0.0 0.0 0.00 0.00 0.00 35 1013.0
20260504170539 70 244 0.0 0.0 0.00 0.00 0.00 36 1013.0
20260504150918 66 274 0.0 0.0 0.00 0.00 0.00 51 1014.1
20260504150415 65 316 0.0 0.0 0.00 0.00 0.00 48 1014.3
20260504140841 63 258 0.0 0.0 0.00 0.00 0.00 58 1014.5
20260504140337 62 279 0.0 0.0 0.00 0.00 0.00 59 1014.2
20260504130806 59 318 0.0 0.0 0.00 0.00 0.00 64 1014.9
20260504130302 59 224 0.0 0.0 0.00 0.00 0.00 67 1014.9
20260504120225 53 304 0.0 0.0 0.00 0.00 0.00 79 1015.2
20260504110653 48 278 0.0 0.0 0.00 0.00 0.00 84 1015.7
20260504110149 48 278 0.0 0.0 0.00 0.00 0.00 84 1015.7
20260504100615 48 278 0.0 0.0 0.00 0.00 0.00 79 1015.7
20260504100113 48 278 0.0 0.0 0.00 0.00 0.00 79 1015.7
20260504081506 48 281 0.0 0.0 0.00 0.00 0.00 72 1015.5
20260504081001 48 281 0.0 0.0 0.00 0.00 0.00 72 1015.4
20260504080458 48 281 0.0 0.0 0.00 0.00 0.00 72 1015.7